Miscellaneous Local Product
Issued by NWS Hastings, NE

Home | Current Version | Previous Version | Graphics & Text | Print | Product List | Glossary On
Versions: 1 2 3 4 5 6 7 8 9 10 11 12 13 14 15 16 17 18 19 20 21 22 23 24 25 26 27 28 29 30 31 32 33 34 35 36 37 38 39 40 41 42 43 44 45 46 47 48 49 50
590
AXUS43 KGID 042102
MISGRI

GID CWA HOURLY WEATHER ROUNDUP
NATIONAL WEATHER SERVICE HASTINGS NE
300 PM CST SUN DEC 04 2016

NOTE: "FAIR" INDICATES FEW OR NO CLOUDS BELOW 12,000 FEET WITH NO
SIGNIFICANT WEATHER AND/OR OBSTRUCTIONS TO VISIBILITY.

...SOUTH CENTRAL NEBRASKA...

CITY           SKY/WX    TMP DP  RH WIND       PRES   REMARKS
GRAND ISLAND   SUNNY     51  26  37 W12       29.88F
HASTINGS       SUNNY     48  33  56 W8        29.91F
KEARNEY        SUNNY     52  25  35 SW9       29.88F
ORD            SUNNY     52  16  24 W14       29.84F
YORK           SUNNY     46  37  71 SW9       29.89F
AURORA         SUNNY     49  32  50 W9        29.89S
LEXINGTON      SUNNY     51  17  25 W12       29.87F
HOLDREGE       SUNNY     51  19  28 W10       29.89F
HEBRON         SUNNY     37  32  81 W7        29.93F WCI  31

...NEBRASKA PANHANDLE...

CITY           SKY/WX    TMP DP  RH WIND       PRES   REMARKS
CHADRON        SUNNY     49  15  25 W10       29.75F
ALLIANCE       SUNNY     48  14  25 W18       29.77F
SCOTTSBLUFF    SUNNY     50  16  25 W20G26    29.79F
SIDNEY         SUNNY     48   8  19 SW14      29.83F

...WESTERN AND NORTH CENTRAL NEBRASKA...

CITY           SKY/WX    TMP DP  RH WIND       PRES   REMARKS
VALENTINE      SUNNY     49  14  24 SW14      29.80F
AINSWORTH      SUNNY     49  19  30 W14       29.81F
ONEILL         SUNNY     50  23  34 W8        29.84S
BROKEN BOW     SUNNY     50  19  29 W12       29.85F
IMPERIAL       SUNNY     51   8  17 SW12G21   29.87F
NORTH PLATTE   SUNNY     50  16  25 W16       29.87F
MCCOOK         SUNNY     52  13  21 W17       29.89F

...EASTERN NEBRASKA...

CITY           SKY/WX    TMP DP  RH WIND       PRES   REMARKS
NORFOLK        SUNNY     50  26  39 W9        29.84F
SO SIOUX CITY  SUNNY     51  33  50 W10       29.84F
TEKAMAH        SUNNY     43  35  73 SW12      29.88F
COLUMBUS       SUNNY     48  34  57 SW12      29.88F
ALBION         SUNNY     50  24  36 SW14      29.86S
OMAHA EPPLEY   SUNNY     42  33  70 SW7       29.90F
OFFUTT AFB     SUNNY     40  35  83 W8        29.91S WCI  34
MILLARD        SUNNY     38  32  79 W6        29.91F WCI  33
LINCOLN        SUNNY     36  32  85 SW7       29.93F WCI  30
NEBRASKA CITY  SUNNY     40  34  77 W9        29.92F WCI  34
BEATRICE       SUNNY     40  35  81 W6        29.93S
FALLS CITY     SUNNY     42  36  79 SW7       29.94F

...NORTHERN KANSAS...

CITY           SKY/WX    TMP DP  RH WIND       PRES   REMARKS
GOODLAND       SUNNY     50   8  18 SW14      29.90F
HILL CITY      SUNNY     52  19  27 W8        29.93F
NORTON         CLEAR     50  12  22 W10       29.90F
PHILLIPSBURG   SUNNY     52  27  37 SW6       29.93F
SMITH CENTER   SUNNY     45  34  65 SW6       29.94F
BELOIT         SUNNY     45  34  65 S7        29.95F
HAYS           SUNNY     51  27  39 NW10      29.96F
RUSSELL        SUNNY     50  26  39 W9        29.95F
CONCORDIA      SUNNY     47  33  58 W9        29.95S
SALINA         SUNNY     52  33  48 W5        29.98F
TOPEKA         CLOUDY    39  34  82 SW8       29.99S WCI  33



USA.gov is the U.S. government's official web portal to all federal, state and local government web resources and services.